User: anonymous   Login
Location: Grand Rapids
(42.9630°N, 85.6680°W)
Time: 02:08:22
(UTC-04:00)
Language:

A-11 Canister half - Orbit

View from above orbital plane
View from above orbital plane
View from above satellite
View from above satellite

Ground track
Ground track

The orbit data is extracted from the following two-line orbital elements,

1 00053U 60009E   24150.91706479  .00000031  00000-0  11431-2 0  9994
2 00053  47.2750 130.4141 0099088  22.7300 337.7834 12.17335099844277
Epoch (UTC): 29 May 2024 22:00:34
Eccentricity: 0.0099088
inclination: 47.2750°
perigee height: 1525 km
apogee height: 1683 km
right ascension of ascending node: 130.4141°
argument of perigee: 22.7300°
revolutions per day: 12.17335099
mean anomaly at epoch: 337.7834°
orbit number at epoch: 84427

The dashed part of the orbit path shows where the satellite is in the earth's shadow,  

DLR